| time (UTC) | temp C | wind direction | speed KPH | gust KPH | rain 1hr cm | rain 24hr cm | rain mn cm | humidity % | barometer mb |
| 20260508034035 | 6 | 115 | 0.0 | 0.0 | 0.00 | 0.00 | 0.00 | 70 | 1013.8 |
| 20260508033532 | 6 | 87 | 1.6 | 1.6 | 0.00 | 0.00 | 0.00 | 70 | 1013.8 |
| 20260508033031 | 6 | 119 | 0.0 | 0.0 | 0.00 | 0.00 | 0.00 | 70 | 1013.8 |
| 20260508032526 | 7 | 121 | 1.6 | 1.6 | 0.00 | 0.00 | 0.00 | 70 | 1013.6 |
| 20260508032024 | 7 | 121 | 0.0 | 0.0 | 0.00 | 0.00 | 0.00 | 70 | 1013.5 |
| 20260508031522 | 7 | 91 | 0.0 | 1.6 | 0.00 | 0.00 | 0.00 | 70 | 1013.8 |
| 20260508031017 | 7 | 122 | 0.0 | 0.0 | 0.00 | 0.00 | 0.00 | 68 | 1013.5 |
| 20260508030514 | 7 | 106 | 0.0 | 0.0 | 0.00 | 0.00 | 0.00 | 67 | 1013.6 |
| 20260508030012 | 7 | 122 | 0.0 | 0.0 | 0.00 | 0.00 | 0.00 | 66 | 1013.6 |
| 20260508025508 | 8 | 118 | 0.0 | 0.0 | 0.00 | 0.00 | 0.00 | 61 | 1013.5 |
| 20260508025005 | 7 | 122 | 0.0 | 0.0 | 0.00 | 0.00 | 0.00 | 66 | 1013.4 |
| 20260508024501 | 7 | 127 | 0.0 | 1.6 | 0.00 | 0.00 | 0.00 | 67 | 1013.4 |
| 20260508023958 | 8 | 125 | 0.0 | 1.6 | 0.00 | 0.00 | 0.00 | 67 | 1013.3 |
| 20260508023454 | 8 | 122 | 0.0 | 0.0 | 0.00 | 0.00 | 0.00 | 66 | 1013.3 |
| 20260508022952 | 8 | 122 | 3.2 | 3.2 | 0.00 | 0.00 | 0.00 | 65 | 1013.1 |
| 20260508022447 | 10 | 112 | 1.6 | 1.6 | 0.00 | 0.00 | 0.00 | 61 | 1013.2 |
| 20260508021944 | 10 | 141 | 1.6 | 1.6 | 0.00 | 0.00 | 0.00 | 56 | 1013.2 |
| 20260508021440 | 10 | 107 | 0.0 | 0.0 | 0.00 | 0.00 | 0.00 | 54 | 1013.2 |
| 20260508020936 | 10 | 98 | 0.0 | 1.6 | 0.00 | 0.00 | 0.00 | 55 | 1013.1 |
| 20260508020435 | 10 | 135 | 1.6 | 1.6 | 0.00 | 0.00 | 0.00 | 54 | 1013.0 |
| 20260508015931 | 10 | 74 | 1.6 | 3.2 | 0.00 | 0.00 | 0.00 | 57 | 1012.9 |
| 20260508015429 | 10 | 114 | 1.6 | 1.6 | 0.00 | 0.00 | 0.00 | 59 | 1012.8 |
| 20260508014925 | 9 | 116 | 0.0 | 1.6 | 0.00 | 0.00 | 0.00 | 66 | 1012.9 |
| 20260508014422 | 9 | 117 | 0.0 | 0.0 | 0.00 | 0.00 | 0.00 | 71 | 1012.9 |
| 20260508013918 | 9 | 173 | 1.6 | 1.6 | 0.00 | 0.00 | 0.00 | 74 | 1012.8 |
| 20260508013414 | 9 | 208 | 3.2 | 3.2 | 0.00 | 0.00 | 0.00 | 77 | 1012.7 |
| 20260508012912 | 8 | 208 | 3.2 | 3.2 | 0.00 | 0.00 | 0.00 | 79 | 1012.7 |
| 20260508012409 | 8 | 127 | 0.0 | 1.6 | 0.00 | 0.00 | 0.00 | 85 | 1012.3 |
| 20260508011907 | 8 | 120 | 0.0 | 0.0 | 0.00 | 0.00 | 0.00 | 86 | 1012.3 |
| 20260508011405 | 8 | 120 | 0.0 | 0.0 | 0.00 | 0.00 | 0.00 | 87 | 1012.1 |
| 20260508010901 | 8 | 109 | 0.0 | 0.0 | 0.00 | 0.00 | 0.00 | 87 | 1012.2 |
| 20260508010359 | 9 | 121 | 0.0 | 0.0 | 0.00 | 0.00 | 0.00 | 86 | 1011.8 |
| 20260508005855 | 10 | 113 | 0.0 | 0.0 | 0.00 | 0.00 | 0.00 | 84 | 1011.8 |
| 20260508005352 | 10 | 109 | 0.0 | 1.6 | 0.00 | 0.00 | 0.00 | 83 | 1011.5 |
| 20260508004849 | 10 | 126 | 0.0 | 0.0 | 0.00 | 0.00 | 0.00 | 83 | 1011.5 |
| 20260508004345 | 10 | 125 | 0.0 | 1.6 | 0.00 | 0.00 | 0.00 | 83 | 1011.4 |
| 20260508003842 | 10 | 168 | 1.6 | 1.6 | 0.00 | 0.00 | 0.00 | 84 | 1011.6 |
| 20260508003338 | 11 | 185 | 3.2 | 3.2 | 0.00 | 0.00 | 0.00 | 84 | 1011.6 |
| 20260508002835 | 11 | 146 | 1.6 | 1.6 | 0.00 | 0.00 | 0.00 | 83 | 1011.5 |
| 20260508002332 | 11 | 111 | 0.0 | 0.0 | 0.00 | 0.00 | 0.00 | 81 | 1011.6 |
| 20260508001828 | 12 | 138 | 3.2 | 4.8 | 0.00 | 0.00 | 0.00 | 80 | 1011.2 |
| 20260508001325 | 12 | 255 | 1.6 | 1.6 | 0.00 | 0.00 | 0.00 | 75 | 1011.2 |
| 20260508000821 | 12 | 197 | 6.4 | 6.4 | 0.00 | 0.00 | 0.00 | 75 | 1011.2 |
| 20260508000319 | 12 | 207 | 6.4 | 6.4 | 0.00 | 0.00 | 0.00 | 78 | 1010.9 |
| 20260507235814 | 12 | 148 | 1.6 | 1.6 | 0.00 | 0.00 | 0.00 | 79 | 1010.9 |
| 20260507235312 | 12 | 231 | 3.2 | 3.2 | 0.00 | 0.00 | 0.00 | 78 | 1010.9 |
| 20260507234809 | 12 | 169 | 1.6 | 3.2 | 0.00 | 0.00 | 0.00 | 78 | 1010.8 |
| 20260507234305 | 13 | 207 | 4.8 | 4.8 | 0.00 | 0.00 | 0.00 | 78 | 1010.7 |
| 20260507233801 | 13 | 199 | 3.2 | 3.2 | 0.00 | 0.00 | 0.00 | 77 | 1010.6 |
| 20260507233259 | 13 | 208 | 9.7 | 9.7 | 0.00 | 0.00 | 0.00 | 78 | 1010.7 |
| 20260507232757 | 13 | 130 | 1.6 | 1.6 | 0.00 | 0.00 | 0.00 | 77 | 1010.4 |
| 20260507232253 | 13 | 214 | 6.4 | 6.4 | 0.00 | 0.00 | 0.00 | 76 | 1010.4 |
| 20260507231749 | 13 | 189 | 8.0 | 9.7 | 0.00 | 0.00 | 0.00 | 76 | 1010.3 |
| 20260507231246 | 13 | 215 | 4.8 | 4.8 | 0.00 | 0.00 | 0.00 | 76 | 1010.2 |
| 20260507230743 | 13 | 216 | 6.4 | 6.4 | 0.00 | 0.00 | 0.00 | 74 | 1010.2 |
| 20260507230241 | 13 | 210 | 4.8 | 6.4 | 0.00 | 0.00 | 0.00 | 76 | 1010.2 |
| 20260507225740 | 13 | 222 | 4.8 | 6.4 | 0.00 | 0.00 | 0.00 | 76 | 1010.2 |
| 20260507225237 | 13 | 223 | 3.2 | 3.2 | 0.00 | 0.00 | 0.00 | 75 | 1010.1 |
| 20260507224732 | 13 | 217 | 6.4 | 6.4 | 0.00 | 0.00 | 0.00 | 76 | 1010.2 |
| 20260507224229 | 13 | 187 | 1.6 | 1.6 | 0.00 | 0.00 | 0.00 | 76 | 1010.0 |
| 20260507223725 | 13 | 197 | 4.8 | 4.8 | 0.00 | 0.00 | 0.00 | 75 | 1010.1 |
| 20260507223222 | 13 | 182 | 4.8 | 4.8 | 0.00 | 0.00 | 0.00 | 75 | 1009.9 |
| 20260507222719 | 13 | 225 | 11.3 | 14.5 | 0.00 | 0.00 | 0.00 | 74 | 1009.7 |
| 20260507222215 | 15 | 149 | 3.2 | 4.8 | 0.00 | 0.00 | 0.00 | 72 | 1009.6 |
| 20260507221712 | 15 | 157 | 9.7 | 14.5 | 0.00 | 0.00 | 0.00 | 71 | 1009.4 |
| 20260507221208 | 14 | 211 | 8.0 | 11.3 | 0.00 | 0.00 | 0.00 | 73 | 1009.7 |
| 20260507220705 | 14 | 235 | 9.7 | 12.9 | 0.00 | 0.00 | 0.00 | 73 | 1009.6 |
| 20260507220204 | 15 | 214 | 9.7 | 12.9 | 0.00 | 0.00 | 0.00 | 70 | 1009.5 |
| 20260507215659 | 15 | 199 | 9.7 | 11.3 | 0.00 | 0.00 | 0.00 | 72 | 1009.2 |
| 20260507215157 | 15 | 234 | 9.7 | 11.3 | 0.00 | 0.00 | 0.00 | 72 | 1009.2 |
| 20260507214654 | 15 | 199 | 9.7 | 14.5 | 0.00 | 0.00 | 0.00 | 70 | 1009.4 |
| 20260507214150 | 15 | 227 | 6.4 | 9.7 | 0.00 | 0.00 | 0.00 | 72 | 1009.3 |
| 20260507213646 | 15 | 192 | 9.7 | 11.3 | 0.00 | 0.00 | 0.00 | 71 | 1009.3 |
| 20260507213144 | 15 | 193 | 6.4 | 6.4 | 0.00 | 0.00 | 0.00 | 72 | 1009.6 |
| 20260507212639 | 15 | 195 | 4.8 | 9.7 | 0.00 | 0.00 | 0.00 | 71 | 1009.5 |
| 20260507212137 | 15 | 218 | 9.7 | 11.3 | 0.00 | 0.00 | 0.00 | 69 | 1009.3 |
| 20260507211634 | 15 | 188 | 8.0 | 11.3 | 0.00 | 0.00 | 0.00 | 69 | 1009.3 |
| 20260507211129 | 15 | 220 | 9.7 | 11.3 | 0.00 | 0.00 | 0.00 | 68 | 1009.3 |
| 20260507210627 | 15 | 131 | 3.2 | 4.8 | 0.00 | 0.00 | 0.00 | 70 | 1009.3 |
| 20260507210123 | 15 | 205 | 3.2 | 4.8 | 0.00 | 0.00 | 0.00 | 73 | 1009.4 |
| 20260507205620 | 15 | 223 | 8.0 | 9.7 | 0.00 | 0.00 | 0.00 | 68 | 1009.4 |
| 20260507205116 | 15 | 190 | 4.8 | 6.4 | 0.00 | 0.00 | 0.00 | 70 | 1009.3 |
| 20260507204613 | 14 | 207 | 8.0 | 11.3 | 0.00 | 0.00 | 0.00 | 73 | 1009.4 |
| 20260507204111 | 13 | 190 | 11.3 | 12.9 | 0.00 | 0.00 | 0.00 | 72 | 1009.4 |
| 20260507203609 | 13 | 223 | 6.4 | 9.7 | 0.00 | 0.00 | 0.00 | 75 | 1009.6 |
| 20260507203106 | 13 | 202 | 6.4 | 9.7 | 0.00 | 0.00 | 0.00 | 76 | 1009.4 |
| 20260507202601 | 14 | 244 | 6.4 | 9.7 | 0.00 | 0.00 | 0.00 | 74 | 1009.5 |
| 20260507202057 | 13 | 147 | 4.8 | 4.8 | 0.00 | 0.00 | 0.00 | 74 | 1009.7 |
| 20260507201553 | 14 | 103 | 1.6 | 1.6 | 0.00 | 0.00 | 0.00 | 72 | 1009.9 |
| 20260507201050 | 13 | 236 | 12.9 | 16.1 | 0.00 | 0.00 | 0.00 | 72 | 1009.8 |
| 20260507200545 | 14 | 223 | 9.7 | 11.3 | 0.00 | 0.00 | 0.00 | 70 | 1009.9 |
| 20260507200041 | 14 | 109 | 3.2 | 4.8 | 0.00 | 0.00 | 0.00 | 75 | 1009.8 |
| 20260507195539 | 13 | 218 | 12.9 | 12.9 | 0.00 | 0.00 | 0.00 | 77 | 1009.8 |
| 20260507195037 | 13 | 219 | 11.3 | 12.9 | 0.00 | 0.00 | 0.00 | 75 | 1010.1 |
| 20260507194532 | 13 | 232 | 8.0 | 11.3 | 0.00 | 0.00 | 0.00 | 79 | 1010.1 |
| 20260507194028 | 12 | 209 | 11.3 | 12.9 | 0.00 | 0.00 | 0.00 | 80 | 1010.1 |
| 20260507193526 | 12 | 208 | 6.4 | 9.7 | 0.00 | 0.00 | 0.00 | 79 | 1010.1 |
| 20260507193023 | 12 | 215 | 6.4 | 9.7 | 0.00 | 0.00 | 0.00 | 79 | 1010.4 |
| 20260507192519 | 12 | 208 | 9.7 | 14.5 | 0.00 | 0.00 | 0.00 | 79 | 1010.6 |
| 20260507192016 | 12 | 215 | 6.4 | 6.4 | 0.00 | 0.00 | 0.00 | 79 | 1010.2 |
| 20260507191511 | 12 | 214 | 8.0 | 11.3 | 0.00 | 0.00 | 0.00 | 80 | 1010.4 |
| 20260507191008 | 12 | 223 | 6.4 | 6.4 | 0.00 | 0.00 | 0.00 | 82 | 1010.6 |
| 20260507190505 | 12 | 220 | 6.4 | 9.7 | 0.00 | 0.00 | 0.00 | 83 | 1010.4 |
| 20260507190005 | 12 | 265 | 6.4 | 6.4 | 0.00 | 0.00 | 0.00 | 84 | 1010.7 |
| 20260507185502 | 12 | 238 | 8.0 | 9.7 | 0.00 | 0.00 | 0.00 | 83 | 1010.6 |
| 20260507184958 | 12 | 214 | 6.4 | 6.4 | 0.00 | 0.00 | 0.00 | 84 | 1010.8 |
| 20260507184456 | 11 | 212 | 6.4 | 6.4 | 0.00 | 0.00 | 0.00 | 85 | 1011.0 |
| 20260507183954 | 11 | 189 | 1.6 | 3.2 | 0.00 | 0.00 | 0.00 | 83 | 1010.7 |
| 20260507183450 | 12 | 193 | 3.2 | 4.8 | 0.00 | 0.00 | 0.00 | 83 | 1010.8 |
| 20260507182948 | 12 | 160 | 1.6 | 1.6 | 0.00 | 0.00 | 0.00 | 81 | 1010.7 |
| 20260507182443 | 11 | 123 | 0.0 | 0.0 | 0.00 | 0.00 | 0.00 | 84 | 1010.6 |
| 20260507181939 | 11 | 190 | 3.2 | 3.2 | 0.00 | 0.00 | 0.00 | 82 | 1011.0 |
| 20260507181436 | 11 | 135 | 1.6 | 1.6 | 0.00 | 0.00 | 0.00 | 81 | 1011.1 |
| 20260507180933 | 12 | 121 | 0.0 | 1.6 | 0.00 | 0.00 | 0.00 | 81 | 1011.1 |
| 20260507180430 | 12 | 204 | 1.6 | 3.2 | 0.00 | 0.00 | 0.00 | 82 | 1010.9 |
| 20260507175925 | 12 | 125 | 1.6 | 1.6 | 0.00 | 0.00 | 0.00 | 80 | 1011.2 |
| 20260507175422 | 12 | 116 | 0.0 | 0.0 | 0.00 | 0.00 | 0.00 | 81 | 1010.9 |
| 20260507174920 | 11 | 113 | 0.0 | 0.0 | 0.00 | 0.00 | 0.00 | 81 | 1011.1 |
| 20260507174417 | 11 | 97 | 0.0 | 1.6 | 0.00 | 0.00 | 0.00 | 81 | 1011.1 |
| 20260507173915 | 11 | 64 | 1.6 | 1.6 | 0.00 | 0.00 | 0.00 | 82 | 1011.2 |
| 20260507173411 | 11 | 66 | 1.6 | 1.6 | 0.00 | 0.00 | 0.00 | 84 | 1011.1 |
| 20260507172908 | 11 | 107 | 1.6 | 1.6 | 0.00 | 0.00 | 0.00 | 83 | 1011.3 |
| 20260507172404 | 11 | 79 | 0.0 | 0.0 | 0.00 | 0.00 | 0.00 | 83 | 1011.4 |
| 20260507171900 | 10 | 83 | 0.0 | 1.6 | 0.00 | 0.00 | 0.00 | 84 | 1011.5 |
| 20260507171357 | 10 | 68 | 6.4 | 6.4 | 0.00 | 0.00 | 0.00 | 83 | 1011.5 |
| 20260507170855 | 11 | 94 | 1.6 | 1.6 | 0.00 | 0.00 | 0.00 | 82 | 1011.5 |
| 20260507170351 | 11 | 32 | 1.6 | 3.2 | 0.00 | 0.00 | 0.00 | 83 | 1011.3 |
| 20260507165847 | 11 | 86 | 1.6 | 1.6 | 0.00 | 0.00 | 0.00 | 83 | 1011.6 |
| 20260507165343 | 11 | 96 | 1.6 | 3.2 | 0.00 | 0.00 | 0.00 | 84 | 1011.6 |
| 20260507164839 | 10 | 92 | 1.6 | 1.6 | 0.00 | 0.00 | 0.00 | 83 | 1011.9 |
| 20260507164336 | 10 | 45 | 3.2 | 4.8 | 0.00 | 0.00 | 0.00 | 85 | 1012.0 |
| 20260507163833 | 10 | 86 | 1.6 | 3.2 | 0.00 | 0.00 | 0.00 | 85 | 1012.1 |
| 20260507163331 | 10 | 70 | 1.6 | 3.2 | 0.00 | 0.00 | 0.00 | 85 | 1012.1 |
| 20260507162827 | 10 | 66 | 4.8 | 4.8 | 0.00 | 0.00 | 0.00 | 85 | 1011.9 |
| 20260507162323 | 10 | 94 | 1.6 | 3.2 | 0.00 | 0.00 | 0.00 | 86 | 1012.1 |
| 20260507161820 | 10 | 359 | 6.4 | 9.7 | 0.00 | 0.00 | 0.00 | 85 | 1012.1 |
| 20260507161316 | 10 | 51 | 6.4 | 9.7 | 0.00 | 0.00 | 0.00 | 85 | 1012.3 |
| 20260507160813 | 10 | 73 | 1.6 | 1.6 | 0.00 | 0.00 | 0.00 | 86 | 1012.5 |
| 20260507160309 | 10 | 46 | 1.6 | 3.2 | 0.00 | 0.00 | 0.00 | 87 | 1012.3 |
| 20260507155805 | 10 | 61 | 4.8 | 4.8 | 0.00 | 0.00 | 0.00 | 86 | 1012.3 |
| 20260507155301 | 10 | 65 | 1.6 | 1.6 | 0.00 | 0.00 | 0.00 | 88 | 1012.3 |
| 20260507154758 | 10 | 342 | 6.4 | 6.4 | 0.00 | 0.00 | 0.00 | 90 | 1012.2 |
| 20260507154255 | 10 | 67 | 3.2 | 3.2 | 0.00 | 0.00 | 0.00 | 90 | 1012.5 |
| 20260507153752 | 9 | 74 | 1.6 | 3.2 | 0.00 | 0.00 | 0.00 | 90 | 1012.9 |
| 20260507153248 | 9 | 50 | 9.7 | 11.3 | 0.00 | 0.00 | 0.00 | 90 | 1012.5 |
| 20260507152745 | 9 | 73 | 3.2 | 4.8 | 0.00 | 0.00 | 0.00 | 90 | 1012.7 |
| 20260507152241 | 9 | 343 | 1.6 | 3.2 | 0.00 | 0.00 | 0.00 | 90 | 1012.5 |
| 20260507151737 | 9 | 22 | 4.8 | 6.4 | 0.00 | 0.00 | 0.00 | 90 | 1012.5 |
| 20260507151234 | 9 | 68 | 4.8 | 4.8 | 0.00 | 0.00 | 0.00 | 89 | 1012.5 |
| 20260507150731 | 9 | 68 | 1.6 | 1.6 | 0.00 | 0.00 | 0.00 | 89 | 1012.7 |
| 20260507150228 | 9 | 55 | 3.2 | 4.8 | 0.00 | 0.00 | 0.00 | 89 | 1012.3 |
| 20260507145723 | 9 | 40 | 9.7 | 12.9 | 0.00 | 0.00 | 0.00 | 89 | 1012.7 |
| 20260507145220 | 9 | 98 | 0.0 | 1.6 | 0.00 | 0.00 | 0.00 | 88 | 1012.8 |
| 20260507144717 | 9 | 97 | 1.6 | 1.6 | 0.00 | 0.00 | 0.00 | 88 | 1012.5 |
| 20260507144215 | 9 | 103 | 1.6 | 1.6 | 0.00 | 0.00 | 0.00 | 87 | 1012.8 |
| 20260507143711 | 9 | 46 | 3.2 | 3.2 | 0.00 | 0.00 | 0.00 | 86 | 1012.8 |
| 20260507143208 | 9 | 87 | 1.6 | 3.2 | 0.00 | 0.00 | 0.00 | 86 | 1012.5 |
| 20260507142704 | 10 | 73 | 3.2 | 6.4 | 0.00 | 0.00 | 0.00 | 84 | 1012.5 |
| 20260507142201 | 10 | 57 | 9.7 | 11.3 | 0.00 | 0.00 | 0.00 | 84 | 1012.5 |
| 20260507141657 | 10 | 42 | 6.4 | 9.7 | 0.00 | 0.00 | 0.00 | 82 | 1012.7 |
| 20260507141154 | 10 | 3 | 6.4 | 9.7 | 0.00 | 0.00 | 0.00 | 80 | 1012.7 |
| 20260507140651 | 10 | 42 | 6.4 | 9.7 | 0.00 | 0.00 | 0.00 | 82 | 1012.5 |
| 20260507140148 | 10 | 10 | 4.8 | 9.7 | 0.00 | 0.00 | 0.00 | 82 | 1012.8 |
| 20260507135645 | 10 | 68 | 4.8 | 4.8 | 0.00 | 0.00 | 0.00 | 81 | 1013.1 |
| 20260507135143 | 10 | 298 | 8.0 | 11.3 | 0.00 | 0.00 | 0.00 | 82 | 1012.9 |
| 20260507134638 | 10 | 12 | 4.8 | 4.8 | 0.00 | 0.00 | 0.00 | 82 | 1012.9 |
| 20260507134135 | 10 | 43 | 6.4 | 9.7 | 0.00 | 0.00 | 0.00 | 82 | 1013.0 |
| 20260507133631 | 10 | 34 | 6.4 | 9.7 | 0.00 | 0.00 | 0.00 | 82 | 1012.9 |
| 20260507133129 | 10 | 66 | 6.4 | 9.7 | 0.00 | 0.00 | 0.00 | 82 | 1012.7 |
| 20260507132625 | 10 | 33 | 6.4 | 6.4 | 0.00 | 0.00 | 0.00 | 82 | 1013.1 |
| 20260507132121 | 10 | 56 | 3.2 | 4.8 | 0.00 | 0.00 | 0.00 | 82 | 1012.9 |
| 20260507131618 | 10 | 49 | 1.6 | 1.6 | 0.00 | 0.00 | 0.00 | 82 | 1013.1 |
| 20260507131116 | 10 | 1 | 4.8 | 6.4 | 0.00 | 0.00 | 0.00 | 83 | 1013.1 |
| 20260507130613 | 10 | 40 | 3.2 | 3.2 | 0.00 | 0.00 | 0.00 | 83 | 1013.1 |
| 20260507130111 | 10 | 38 | 6.4 | 6.4 | 0.00 | 0.00 | 0.00 | 83 | 1013.1 |
| 20260507125609 | 10 | 29 | 4.8 | 4.8 | 0.00 | 0.00 | 0.00 | 83 | 1013.0 |
| 20260507125106 | 10 | 74 | 4.8 | 9.7 | 0.00 | 0.00 | 0.00 | 83 | 1012.8 |
| 20260507124602 | 10 | 67 | 4.8 | 6.4 | 0.00 | 0.00 | 0.00 | 82 | 1012.7 |
| 20260507124100 | 10 | 56 | 8.0 | 11.3 | 0.00 | 0.00 | 0.00 | 83 | 1012.7 |
| 20260507123558 | 10 | 70 | 3.2 | 3.2 | 0.00 | 0.00 | 0.00 | 84 | 1012.9 |
| 20260507123055 | 10 | 67 | 4.8 | 9.7 | 0.00 | 0.00 | 0.00 | 84 | 1012.7 |
| 20260507122550 | 10 | 79 | 1.6 | 3.2 | 0.00 | 0.00 | 0.00 | 84 | 1012.8 |
| 20260507122046 | 10 | 74 | 3.2 | 3.2 | 0.00 | 0.00 | 0.00 | 85 | 1012.7 |
| 20260507121542 | 10 | 40 | 9.7 | 12.9 | 0.00 | 0.00 | 0.00 | 85 | 1012.7 |
| 20260507121038 | 10 | 65 | 4.8 | 4.8 | 0.00 | 0.00 | 0.00 | 85 | 1012.5 |
| 20260507120534 | 10 | 28 | 4.8 | 6.4 | 0.00 | 0.00 | 0.00 | 86 | 1012.6 |
| 20260507120031 | 10 | 62 | 6.4 | 9.7 | 0.00 | 0.00 | 0.00 | 85 | 1013.0 |
| 20260507115528 | 10 | 33 | 11.3 | 12.9 | 0.00 | 0.00 | 0.00 | 86 | 1012.6 |
| 20260507115023 | 10 | 70 | 4.8 | 6.4 | 0.00 | 0.00 | 0.00 | 88 | 1012.6 |
| 20260507114520 | 10 | 89 | 1.6 | 3.2 | 0.00 | 0.00 | 0.00 | 89 | 1012.5 |
| 20260507114017 | 10 | 59 | 1.6 | 1.6 | 0.00 | 0.00 | 0.00 | 89 | 1012.7 |
| 20260507113514 | 10 | 44 | 4.8 | 4.8 | 0.00 | 0.00 | 0.00 | 88 | 1012.7 |
| 20260507113011 | 10 | 65 | 3.2 | 4.8 | 0.00 | 0.00 | 0.00 | 89 | 1012.9 |
| 20260507112509 | 10 | 44 | 3.2 | 4.8 | 0.00 | 0.00 | 0.00 | 89 | 1012.5 |
| 20260507112005 | 10 | 72 | 0.0 | 1.6 | 0.00 | 0.00 | 0.00 | 89 | 1012.8 |
| 20260507111503 | 10 | 64 | 1.6 | 3.2 | 0.00 | 0.00 | 0.00 | 89 | 1012.7 |
| 20260507110959 | 10 | 55 | 1.6 | 3.2 | 0.00 | 0.00 | 0.00 | 89 | 1012.3 |
| 20260507110455 | 10 | 51 | 4.8 | 4.8 | 0.00 | 0.00 | 0.00 | 90 | 1012.2 |
| 20260507105952 | 10 | 83 | 1.6 | 3.2 | 0.00 | 0.00 | 0.00 | 90 | 1012.0 |
| 20260507105449 | 10 | 51 | 3.2 | 3.2 | 0.00 | 0.00 | 0.00 | 90 | 1012.2 |
| 20260507104945 | 10 | 79 | 1.6 | 1.6 | 0.00 | 0.00 | 0.00 | 91 | 1012.1 |
| 20260507104443 | 10 | 45 | 3.2 | 3.2 | 0.00 | 0.00 | 0.00 | 91 | 1011.9 |
| 20260507103939 | 10 | 78 | 1.6 | 1.6 | 0.00 | 0.00 | 0.00 | 91 | 1012.0 |
| 20260507103436 | 11 | 80 | 1.6 | 1.6 | 0.00 | 0.00 | 0.00 | 91 | 1011.6 |
| 20260507102931 | 11 | 66 | 1.6 | 3.2 | 0.00 | 0.00 | 0.00 | 91 | 1011.6 |
| 20260507102428 | 11 | 55 | 3.2 | 3.2 | 0.00 | 0.00 | 0.00 | 91 | 1011.8 |
| 20260507101925 | 11 | 94 | 1.6 | 1.6 | 0.00 | 0.00 | 0.00 | 91 | 1011.8 |
| 20260507101420 | 11 | 52 | 3.2 | 4.8 | 0.00 | 0.00 | 0.00 | 91 | 1011.5 |
| 20260507100916 | 11 | 77 | 3.2 | 3.2 | 0.00 | 0.00 | 0.00 | 90 | 1011.7 |
| 20260507100414 | 11 | 78 | 1.6 | 1.6 | 0.00 | 0.00 | 0.00 | 90 | 1011.8 |
| 20260507095912 | 11 | 71 | 1.6 | 1.6 | 0.00 | 0.00 | 0.00 | 89 | 1011.9 |
| 20260507095409 | 12 | 67 | 0.0 | 1.6 | 0.00 | 0.00 | 0.00 | 88 | 1011.8 |
| 20260507094906 | 12 | 87 | 3.2 | 4.8 | 0.00 | 0.00 | 0.00 | 87 | 1011.6 |
| 20260507094402 | 13 | 56 | 4.8 | 4.8 | 0.00 | 0.00 | 0.00 | 85 | 1011.6 |
| 20260507093859 | 13 | 76 | 3.2 | 3.2 | 0.00 | 0.00 | 0.00 | 85 | 1011.7 |
| 20260507093358 | 13 | 151 | 1.6 | 1.6 | 0.00 | 0.00 | 0.00 | 85 | 1011.7 |
| 20260507092855 | 13 | 342 | 3.2 | 3.2 | 0.00 | 0.00 | 0.00 | 87 | 1011.6 |
| 20260507092351 | 13 | 85 | 1.6 | 1.6 | 0.00 | 0.00 | 0.00 | 88 | 1011.3 |
| 20260507091848 | 13 | 106 | 0.0 | 0.0 | 0.00 | 0.00 | 0.00 | 89 | 1011.3 |
| 20260507091345 | 13 | 84 | 3.2 | 3.2 | 0.00 | 0.00 | 0.00 | 89 | 1011.2 |
| 20260507090840 | 13 | 101 | 1.6 | 1.6 | 0.00 | 0.00 | 0.00 | 89 | 1011.6 |
| 20260507090337 | 13 | 106 | 0.0 | 0.0 | 0.00 | 0.00 | 0.00 | 89 | 1011.7 |
| 20260507085834 | 13 | 124 | 0.0 | 0.0 | 0.00 | 0.00 | 0.00 | 89 | 1011.7 |
| 20260507085331 | 13 | 118 | 0.0 | 0.0 | 0.00 | 0.00 | 0.00 | 89 | 1011.7 |
| 20260507084828 | 13 | 132 | 0.0 | 0.0 | 0.00 | 0.00 | 0.00 | 89 | 1012.0 |
| 20260507084324 | 13 | 191 | 1.6 | 1.6 | 0.00 | 0.00 | 0.00 | 89 | 1011.9 |
| 20260507083822 | 13 | 199 | 3.2 | 3.2 | 0.00 | 0.00 | 0.00 | 89 | 1012.0 |
| 20260507083318 | 13 | 102 | 0.0 | 0.0 | 0.00 | 0.00 | 0.00 | 88 | 1011.3 |
| 20260507082814 | 13 | 120 | 0.0 | 0.0 | 0.00 | 0.00 | 0.00 | 87 | 1011.4 |
| 20260507082310 | 13 | 119 | 0.0 | 0.0 | 0.00 | 0.00 | 0.00 | 87 | 1011.3 |
| 20260507081808 | 13 | 125 | 3.2 | 4.8 | 0.00 | 0.00 | 0.00 | 88 | 1011.1 |
| 20260507081303 | 13 | 121 | 0.0 | 0.0 | 0.00 | 0.00 | 0.00 | 89 | 1011.5 |
| 20260507080800 | 13 | 122 | 1.6 | 1.6 | 0.00 | 0.00 | 0.00 | 88 | 1011.5 |
| 20260507080256 | 13 | 108 | 0.0 | 0.0 | 0.00 | 0.00 | 0.00 | 88 | 1011.5 |
| 20260507075752 | 13 | 109 | 0.0 | 0.0 | 0.00 | 0.00 | 0.00 | 87 | 1011.6 |
| 20260507075248 | 13 | 123 | 0.0 | 1.6 | 0.00 | 0.00 | 0.00 | 87 | 1011.4 |
| 20260507074744 | 13 | 115 | 0.0 | 0.0 | 0.00 | 0.00 | 0.00 | 86 | 1011.5 |
| 20260507074243 | 13 | 114 | 0.0 | 0.0 | 0.00 | 0.00 | 0.00 | 85 | 1011.3 |
| 20260507073739 | 14 | 108 | 0.0 | 0.0 | 0.00 | 0.00 | 0.00 | 84 | 1011.3 |
| 20260507073235 | 14 | 125 | 0.0 | 0.0 | 0.00 | 0.00 | 0.00 | 84 | 1011.4 |
| 20260507072734 | 14 | 130 | 0.0 | 1.6 | 0.00 | 0.00 | 0.00 | 85 | 1011.4 |
| 20260507072231 | 14 | 207 | 4.8 | 6.4 | 0.00 | 0.00 | 0.00 | 86 | 1011.5 |
| 20260507071728 | 14 | 169 | 1.6 | 3.2 | 0.00 | 0.00 | 0.00 | 86 | 1011.6 |
| 20260507071224 | 14 | 204 | 4.8 | 4.8 | 0.00 | 0.00 | 0.00 | 85 | 1011.6 |
| 20260507070721 | 14 | 189 | 3.2 | 3.2 | 0.00 | 0.00 | 0.00 | 85 | 1011.4 |
| 20260507070218 | 15 | 154 | 4.8 | 4.8 | 0.00 | 0.00 | 0.00 | 85 | 1011.2 |
| 20260507065715 | 15 | 173 | 3.2 | 4.8 | 0.00 | 0.00 | 0.00 | 84 | 1011.1 |
| 20260507065212 | 15 | 217 | 4.8 | 4.8 | 0.00 | 0.00 | 0.00 | 83 | 1011.1 |
| 20260507064709 | 15 | 202 | 4.8 | 6.4 | 0.00 | 0.00 | 0.00 | 83 | 1011.2 |
| 20260507064208 | 15 | 185 | 8.0 | 11.3 | 0.00 | 0.00 | 0.00 | 83 | 1011.0 |
| 20260507063705 | 14 | 127 | 3.2 | 4.8 | 0.00 | 0.00 | 0.00 | 85 | 1011.3 |
| 20260507063202 | 14 | 192 | 6.4 | 6.4 | 0.00 | 0.00 | 0.00 | 86 | 1011.1 |
| 20260507062659 | 14 | 129 | 3.2 | 3.2 | 0.00 | 0.00 | 0.00 | 86 | 1011.1 |
| 20260507062156 | 15 | 122 | 0.0 | 0.0 | 0.00 | 0.00 | 0.00 | 85 | 1011.2 |
| 20260507061654 | 15 | 123 | 0.0 | 1.6 | 0.00 | 0.00 | 0.00 | 84 | 1011.5 |
| 20260507061151 | 15 | 199 | 4.8 | 4.8 | 0.00 | 0.00 | 0.00 | 83 | 1011.5 |
| 20260507060649 | 15 | 266 | 4.8 | 6.4 | 0.00 | 0.00 | 0.00 | 83 | 1011.8 |
| 20260507060145 | 15 | 259 | 9.7 | 12.9 | 0.00 | 0.00 | 0.00 | 83 | 1011.6 |
| 20260507055641 | 15 | 277 | 9.7 | 14.5 | 0.00 | 0.00 | 0.00 | 84 | 1011.6 |
| 20260507055137 | 15 | 250 | 6.4 | 11.3 | 0.00 | 0.00 | 0.00 | 84 | 1011.9 |
| 20260507054633 | 15 | 228 | 16.1 | 17.7 | 0.00 | 0.00 | 0.00 | 85 | 1012.0 |
| 20260507054130 | 15 | 258 | 9.7 | 14.5 | 0.00 | 0.00 | 0.00 | 89 | 1011.8 |
| 20260507053628 | 15 | 326 | 8.0 | 11.3 | 0.00 | 0.00 | 0.00 | 91 | 1011.9 |
| 20260507053126 | 16 | 198 | 4.8 | 6.4 | 0.00 | 0.00 | 0.00 | 91 | 1011.7 |
| 20260507052624 | 16 | 263 | 8.0 | 11.3 | 0.00 | 0.00 | 0.00 | 91 | 1011.8 |
| 20260507052120 | 16 | 220 | 6.4 | 9.7 | 0.00 | 0.00 | 0.00 | 91 | 1011.6 |
| 20260507051618 | 16 | 249 | 4.8 | 4.8 | 0.00 | 0.00 | 0.00 | 91 | 1011.6 |
| 20260507051115 | 16 | 264 | 11.3 | 14.5 | 0.00 | 0.00 | 0.00 | 91 | 1011.4 |
| 20260507050611 | 15 | 267 | 6.4 | 6.4 | 0.00 | 0.00 | 0.00 | 92 | 1011.2 |
| 20260507050108 | 15 | 249 | 6.4 | 9.7 | 0.00 | 0.00 | 0.00 | 92 | 1011.0 |
| 20260507045605 | 16 | 237 | 4.8 | 4.8 | 0.00 | 0.00 | 0.00 | 91 | 1010.8 |
| 20260507045102 | 16 | 196 | 3.2 | 3.2 | 0.00 | 0.00 | 0.00 | 91 | 1010.7 |
| 20260507044558 | 16 | 202 | 3.2 | 3.2 | 0.00 | 0.00 | 0.00 | 91 | 1010.3 |
| 20260507044055 | 16 | 177 | 4.8 | 4.8 | 0.00 | 0.00 | 0.00 | 91 | 1010.0 |
| 20260507043551 | 16 | 182 | 1.6 | 3.2 | 0.00 | 0.00 | 0.00 | 91 | 1010.4 |
| 20260507043049 | 16 | 194 | 3.2 | 3.2 | 0.00 | 0.00 | 0.00 | 90 | 1010.9 |
| 20260507042544 | 16 | 159 | 4.8 | 6.4 | 0.00 | 0.00 | 0.00 | 90 | 1010.8 |
| 20260507042040 | 16 | 140 | 1.6 | 3.2 | 0.00 | 0.00 | 0.00 | 89 | 1011.2 |
| 20260507041537 | 16 | 197 | 3.2 | 4.8 | 0.00 | 0.00 | 0.00 | 88 | 1011.5 |
| 20260507041034 | 16 | 207 | 6.4 | 9.7 | 0.00 | 0.00 | 0.00 | 87 | 1011.7 |
| 20260507040530 | 16 | 214 | 11.3 | 12.9 | 0.00 | 0.00 | 0.00 | 87 | 1011.3 |
| 20260507040026 | 16 | 229 | 9.7 | 14.5 | 0.00 | 0.13 | 0.13 | 86 | 1011.4 |
| 20260507035523 | 16 | 206 | 9.7 | 11.3 | 0.00 | 0.13 | 0.13 | 87 | 1011.5 |
| 20260507035019 | 16 | 206 | 6.4 | 6.4 | 0.00 | 0.13 | 0.13 | 87 | 1011.5 |
| 20260507034516 | 16 | 191 | 4.8 | 4.8 | 0.00 | 0.13 | 0.13 | 87 | 1011.5 |